Date String (YYYY-MM-DD hh:mm:ss) UTC,Instrument flags,absolute air pressure of the measurement (hPa),sample flow rate (lpm),inlet stack bypass flow (lpm),air temperature of the measurement (°C),ambient temperature measured by the external sensor (°C),aerosol sample conditioner tube jacket temperature (°C),OPC LED temperature (°C),internal box temperature (°C),relative humidity of the measurement (%),span deviation,mass concentration of particles derived from Lorenz-Mie calculation of OPC scattering (μg/m³),mass concentration of particles derived from Lorenz-Mie calculation of OPC scattering (μg/m³),mass concentration of particles derived from Lorenz-Mie calculation of OPC scattering (μg/m³)
DateTimeUTC,F1_M11,P_M11,Q1_M11,Q2_M11,T1_M11,T2_M11,T3_M11,T4_M11,T5_M11,U1_M11,ZSPAN_M11,X0_M11,X2_M11,X1_M11
2023-08-22 12:00:00,SystemResetWarning,0835.3,5.00,000.00,028.2,026.0,000.0,036.7,029.8,19.3,0000.8,0015.44,0007.57,0006.37
2023-08-22 12:01:00,SystemResetWarning,0835.2,5.00,000.00,028.2,026.2,000.0,036.7,029.8,19.5,0000.6,0015.66,0007.54,0006.35
2023-08-22 12:02:00,SystemResetWarning,0835.2,5.00,000.00,028.2,026.4,000.0,036.8,029.9,19.4,0000.6,0015.29,0007.44,0006.30
2023-08-22 12:03:00,SystemResetWarning,0835.2,5.00,000.00,028.2,026.6,000.0,036.8,029.9,19.2,0000.5,0015.09,0007.34,0006.24
2023-08-22 12:04:00,SystemResetWarning,0835.2,5.00,000.00,028.3,026.8,000.0,036.8,029.9,19.0,0000.3,0014.97,0007.26,0006.17
2023-08-22 12:05:00,SystemResetWarning,0835.4,5.00,000.00,028.3,026.9,000.0,036.8,030.0,19.0,0000.4,0014.35,0007.21,0006.13
2023-08-22 12:06:00,SystemResetWarning,0835.3,5.00,000.00,028.3,027.0,000.0,036.8,030.0,18.9,0000.4,0013.78,0007.16,0006.10
2023-08-22 12:07:00,SystemResetWarning,0835.3,5.00,000.00,028.4,027.1,000.0,036.8,030.1,19.2,0000.3,0013.42,0007.17,0006.10
2023-08-22 12:08:00,SystemResetWarning,0835.3,4.99,000.00,028.4,027.2,000.0,036.9,030.1,18.9,0000.2,0013.65,0007.20,0006.08
2023-08-22 12:09:00,SystemResetWarning,0835.4,4.99,000.00,028.4,027.3,000.0,036.9,030.2,18.9,0000.9,0013.51,0007.18,0006.06
2023-08-22 12:10:00,SystemResetWarning,0835.5,5.00,000.00,028.5,027.3,000.0,036.9,030.2,19.0,0001.2,0013.26,0007.14,0006.05
2023-08-22 12:11:00,SystemResetWarning,0835.5,4.99,000.00,028.5,027.3,000.0,036.9,030.2,19.0,0001.5,0012.51,0007.11,0006.05
2023-08-22 12:12:00,SystemResetWarning,0835.5,5.00,000.00,028.5,025.6,000.0,036.8,030.0,19.1,0001.7,0012.52,0007.05,0006.03
2023-08-22 12:13:00,SystemResetWarning,0835.4,5.00,000.00,028.4,024.6,000.0,036.7,029.8,19.3,0001.8,0012.77,0007.07,0006.03
2023-08-22 12:14:00,SystemResetWarning,0835.4,5.01,000.00,028.3,024.6,000.0,036.7,029.6,19.3,0001.7,0012.73,0007.04,0006.02
2023-08-22 12:15:00,SystemResetWarning,0835.4,5.01,000.00,028.2,024.9,000.0,036.7,029.6,19.2,0002.0,0013.08,0007.06,0006.02
2023-08-22 12:16:00,SystemResetWarning,0835.5,4.99,000.00,028.2,025.3,000.0,036.7,029.6,19.0,0002.2,0012.92,0007.01,0006.01
2023-08-22 12:17:00,SystemResetWarning,0835.5,4.99,000.00,028.2,025.6,000.0,036.8,029.7,19.2,0002.3,0012.89,0006.98,0006.00
2023-08-22 12:18:00,SystemResetWarning,0835.5,5.00,000.00,028.2,026.0,000.0,036.8,029.8,19.3,0002.6,0013.12,0006.98,0006.00
2023-08-22 12:19:00,SystemResetWarning,0835.5,5.01,000.00,028.2,026.2,000.0,036.8,029.9,19.1,0002.4,0013.10,0006.99,0006.01
2023-08-22 12:20:00,SystemResetWarning,0835.5,4.99,000.00,028.3,026.5,000.0,036.8,029.9,19.1,0002.1,0012.91,0006.94,0006.01
2023-08-22 12:21:00,SystemResetWarning,0835.5,5.00,000.00,028.3,026.7,000.0,036.8,030.0,19.3,0002.0,0012.95,0006.90,0005.99
2023-08-22 12:22:00,SystemResetWarning,0835.6,5.00,000.00,028.3,026.8,000.0,036.8,030.0,19.0,0001.9,0012.97,0006.89,0005.98
2023-08-22 12:23:00,SystemResetWarning,0835.5,5.00,000.00,028.4,027.0,000.0,036.8,030.1,18.8,0001.9,0012.79,0006.90,0005.96
2023-08-22 12:24:00,SystemResetWarning,0835.6,5.00,000.00,028.4,027.1,000.0,036.8,030.1,18.9,0001.9,0012.57,0006.87,0005.95
2023-08-22 12:25:00,SystemResetWarning,0835.6,5.00,000.00,028.4,027.2,000.0,036.9,030.1,18.8,0001.8,0013.01,0006.83,0005.93
2023-08-22 12:26:00,SystemResetWarning,0835.5,5.00,000.00,028.5,027.3,000.0,036.9,030.2,18.8,0001.5,0013.06,0006.80,0005.92
2023-08-22 12:27:00,SystemResetWarning,0835.5,5.00,000.00,028.5,027.4,000.0,036.9,030.2,18.8,0001.7,0012.97,0006.78,0005.93
2023-08-22 12:28:00,SystemResetWarning,0835.5,5.00,000.00,028.5,027.5,000.0,036.9,030.3,18.8,0001.9,0012.92,0006.75,0005.92
2023-08-22 12:29:00,SystemResetWarning,0835.5,5.00,000.00,028.6,026.9,000.0,036.9,030.2,18.7,0002.1,0012.87,0006.77,0005.91
2023-08-22 12:30:00,SystemResetWarning,0835.5,4.98,000.00,028.5,025.1,000.0,036.8,029.9,18.7,0002.6,0012.61,0006.74,0005.89
2023-08-22 12:31:00,SystemResetWarning,0835.5,5.01,000.00,028.4,024.7,000.0,036.7,029.8,18.7,0003.0,0012.77,0006.78,0005.89
2023-08-22 12:32:00,SystemResetWarning,0835.5,5.01,000.00,028.4,024.9,000.0,036.7,029.7,18.8,0003.1,0012.75,0006.81,0005.90
2023-08-22 12:33:00,SystemResetWarning,0835.5,5.00,000.00,028.3,025.2,000.0,036.8,029.7,18.9,0003.2,0012.70,0006.82,0005.91
2023-08-22 12:34:00,SystemResetWarning,0835.7,5.00,000.00,028.3,025.6,000.0,036.8,029.8,19.0,0003.1,0012.46,0006.83,0005.92
2023-08-22 12:35:00,SystemResetWarning,0835.6,5.00,000.00,028.3,025.9,000.0,036.8,029.9,19.0,0003.0,0012.63,0006.80,0005.92
2023-08-22 12:36:00,SystemResetWarning,0835.6,5.00,000.00,028.3,026.2,000.0,036.8,029.9,19.1,0003.2,0012.84,0006.84,0005.92
2023-08-22 12:37:00,SystemResetWarning,0835.7,5.00,000.00,028.3,026.5,000.0,036.8,030.0,19.2,0003.1,0012.42,0006.86,0005.94
2023-08-22 12:38:00,SystemResetWarning,0835.6,5.00,000.00,028.4,026.7,000.0,036.8,030.0,19.1,0002.9,0012.62,0006.87,0005.93
2023-08-22 12:39:00,SystemResetWarning,0835.6,5.01,000.00,028.4,026.9,000.0,036.9,030.1,19.0,0002.8,0013.20,0006.93,0005.94
2023-08-22 12:40:00,SystemResetWarning,0835.8,4.99,000.00,028.4,027.0,000.0,036.9,030.1,19.2,0002.2,0013.20,0006.96,0005.95
2023-08-22 12:41:00,SystemResetWarning,0835.6,4.99,000.00,028.4,027.2,000.0,036.9,030.2,19.2,0001.7,0013.33,0007.03,0005.98
2023-08-22 12:42:00,SystemResetWarning,0835.6,5.00,000.00,028.5,027.3,000.0,036.9,030.2,19.0,0001.1,0013.44,0007.08,0005.99
2023-08-22 12:43:00,SystemResetWarning,0835.6,5.00,000.00,028.5,027.4,000.0,036.9,030.2,19.1,0000.9,0013.79,0007.12,0006.00
2023-08-22 12:44:00,SystemResetWarning,0835.7,5.00,000.00,028.6,027.3,000.0,036.9,030.3,19.1,0000.6,0014.68,0007.16,0006.02
2023-08-22 12:45:00,SystemResetWarning,0835.7,5.00,000.00,028.6,025.9,000.0,036.9,030.0,19.2,0000.3,0014.78,0007.19,0006.04
2023-08-22 12:46:00,SystemResetWarning,0835.6,5.00,000.00,028.4,024.1,000.0,036.8,029.7,19.4,-000.0,0014.65,0007.20,0006.05
2023-08-22 12:47:00,SystemResetWarning,0835.6,5.01,000.00,028.3,023.9,000.0,036.7,029.6,19.5,-000.4,0014.06,0007.18,0006.05
2023-08-22 12:48:00,SystemResetWarning,0835.7,5.01,000.00,028.2,024.2,000.0,036.7,029.5,19.7,0000.0,0014.15,0007.24,0006.06
2023-08-22 12:49:00,SystemResetWarning,0835.7,5.00,000.00,028.2,024.6,000.0,036.7,029.5,19.7,0000.5,0014.57,0007.31,0006.08
2023-08-22 12:50:00,SystemResetWarning,0835.7,5.01,000.00,028.1,025.1,000.0,036.7,029.6,19.8,0000.5,0014.24,0007.34,0006.10
2023-08-22 12:51:00,SystemResetWarning,0835.7,5.00,000.00,028.1,025.5,000.0,036.7,029.7,19.8,0000.8,0015.03,0007.36,0006.12
2023-08-22 12:52:00,SystemResetWarning,0835.8,5.00,000.00,028.2,025.8,000.0,036.7,029.7,19.8,0001.0,0015.21,0007.38,0006.13
2023-08-22 12:53:00,SystemResetWarning,0835.8,5.00,000.00,028.2,026.1,000.0,036.7,029.8,19.7,0000.9,0015.07,0007.29,0006.11
2023-08-22 12:54:00,SystemResetWarning,0835.8,5.00,000.00,028.2,026.4,000.0,036.7,029.9,19.6,0000.5,0014.81,0007.27,0006.10
2023-08-22 12:55:00,SystemResetWarning,0835.9,5.00,000.00,028.2,026.6,000.0,036.7,029.9,19.6,0000.3,0013.92,0007.24,0006.08
2023-08-22 12:56:00,SystemResetWarning,0835.8,5.00,000.00,028.3,026.7,000.0,036.8,030.0,19.7,0000.2,0013.88,0007.24,0006.07
2023-08-22 12:57:00,SystemResetWarning,0835.8,5.00,000.00,028.3,026.9,000.0,036.8,030.0,19.6,0000.5,0013.89,0007.26,0006.08
2023-08-22 12:58:00,SystemResetWarning,0835.8,5.00,000.00,028.3,027.0,000.0,036.8,030.1,19.6,0000.5,0014.01,0007.34,0006.11
2023-08-22 12:59:00,SystemResetWarning,0835.9,5.00,000.00,028.4,027.1,000.0,036.8,030.1,19.6,0000.1,0013.98,0007.35,0006.12
